サイディング・スプリング彗星

389P/Siding Spring (2006)

English version
Home page
Updated on October 22, 2019

---------------------------------------------------------------------

・ プロフィール

符号 389P/2006 R1
発見日 2006年9月1日
発見光度 17.7等
発見者 Siding Spring Survey

・ 軌道要素

Epoch 2006 Sept. 22.0 TT = JDT 2454000.5                                        
T 2006 Sept. 3.67388 TT                                 Williams                
q   1.6711048            (2000.0)            P               Q                  
n   0.07400939     Peri.  249.30973     +0.82487623     -0.52348001             
a   5.6183849      Node   218.63313     -0.30049674     -0.72579389             
e   0.7025649      Incl.  160.01117     -0.47883287     -0.44630920             
P  13.3                                                                         
From 65 observations 2006 Sept. 1-2019 Sept. 26, mean residual 0".4.            

・ 光度変化

        m1 = 16.0 + 5 logΔ + 10.0 log r

---------------------------------------------------------------------

軌道要素はM.P.E.C. 2019-S105に掲載されたものです。
光度グラフはComet for Windowsで作成したものです。

---------------------------------------------------------------------

Copyright(C) Seiichi Yoshida (comet@aerith.net). All rights reserved.